Weather History for Medicine Hat, AB

Change the Weather History Date:

Tuesday, October 22, 2013

  Actual Average Record
Temperature  
Mean Temperature 50 °F -  
Max Temperature 64 °F 44 °F 73 °F (1998)
Min Temperature 37 °F 21 °F 19 °F (2012)
Degree Days  
Heating Degree Days 14    
Moisture  
Dew Point 39 °F    
Average Humidity 66    
Maximum Humidity 93    
Minimum Humidity 34    
Precipitation  
Precipitation 0.00 in 0.02 in - ()
Sea Level Pressure  
Sea Level Pressure 30.10 in    
Wind  
Wind Speed 6 mph ()    
Max Wind Speed 15 mph    
Max Gust Speed -    
Visibility 10.8 miles    
Events      
Averages and records for this station are not official NWS values.
T = Trace of Precipitation, MM = Missing Value Source: Averaged Metar Reports

Daily Weather History Graph

Daily Weather History Graph

Search for Another Location

Airport:

Trip Planner

Search our weather history database for the weather conditions in past years. The results will help you decide how hot, cold, wet, or windy it might be!

Date:

Astronomy

Oct. 22, 2013 Rise Set
Actual Time 7:56 AM MDT 6:17 PM MDT
Civil Twilight 7:23 AM MDT 6:50 PM MDT
Nautical Twilight 6:45 AM MDT 7:27 PM MDT
Astronomical Twilight 6:08 AM MDT 8:05 PM MDT
Moon 8:44 PM MDT (10/22) 11:43 AM MDT (10/22)
Length of Visible Light 11h 26m
Length of Day
10h 20m
Waning Gibbous, 86% of the Moon is Illuminated
Oct 22
Waning Gibbous
Oct 26
Last Quarter
Nov 3
New
Nov 9
First Quarter
Nov 17
Full

Hourly Weather History & Observations

Time (MDT) Temp. Windchill Dew Point Humidity Pressure Visibility Wind Dir Wind Speed Gust Speed Precip Events Conditions
12:00 AM 48.2 °F - 41.0 °F 76% 30.09 in 9.0 mi SW 3.5 mph - N/A   Overcast
1:00 AM 48.2 °F - 39.2 °F 71% 30.09 in 9.0 mi West 3.5 mph - N/A   Overcast
2:00 AM 48.2 °F - 41.0 °F 76% 30.09 in 9.0 mi SW 2.3 mph - N/A   Overcast
3:00 AM 44.6 °F 43.1 °F 41.0 °F 87% 30.09 in 9.0 mi South 3.5 mph - N/A   Overcast
4:00 AM 41.0 °F 37.1 °F 37.4 °F 87% 30.11 in 9.0 mi SSW 5.8 mph - N/A   Mostly Cloudy
5:00 AM 41.0 °F 35.8 °F 37.4 °F 87% 30.09 in 9.0 mi SSW 8.1 mph - N/A   Overcast
6:00 AM 39.2 °F 34.2 °F 35.6 °F 87% 30.12 in 9.0 mi SW 6.9 mph - N/A   Mostly Cloudy
7:00 AM 37.4 °F 32.8 °F 35.6 °F 93% 30.12 in 15.0 mi SW 5.8 mph - N/A   Mostly Cloudy
8:00 AM 37.4 °F 34.9 °F 35.6 °F 93% 30.12 in 30.0 mi SW 3.5 mph - N/A   Mostly Cloudy
9:00 AM 39.2 °F 37.0 °F 37.4 °F 93% 30.12 in 30.0 mi South 3.5 mph - N/A   Mostly Cloudy
10:00 AM 42.8 °F 38.0 °F 39.2 °F 87% 30.11 in 30.0 mi SW 8.1 mph - N/A   Mostly Cloudy
11:00 AM 50.0 °F - 39.2 °F 66% 30.10 in 30.0 mi SW 9.2 mph - N/A   Mostly Cloudy
12:00 PM 55.4 °F - 41.0 °F 58% 30.09 in 30.0 mi WSW 8.1 mph - N/A   Scattered Clouds
1:00 PM 59.0 °F - 41.0 °F 51% 30.07 in 30.0 mi WSW 6.9 mph - N/A   Scattered Clouds
2:00 PM 60.8 °F - 39.2 °F 45% 30.06 in 30.0 mi West 8.1 mph - N/A   Scattered Clouds
3:00 PM 62.6 °F - 39.2 °F 42% 30.05 in 30.0 mi West 9.2 mph - N/A   Scattered Clouds
4:00 PM 64.4 °F - 35.6 °F 34% 30.06 in 30.0 mi WNW 15.0 mph - N/A   Scattered Clouds
5:00 PM 64.4 °F - 37.4 °F 37% 30.06 in 30.0 mi WNW 13.8 mph - N/A   Scattered Clouds
6:00 PM 59.0 °F - 39.2 °F 48% 30.08 in 30.0 mi WNW 9.2 mph - N/A   Mostly Cloudy
7:00 PM 57.2 °F - 39.2 °F 51% 30.09 in 15.0 mi West 9.2 mph - N/A   Mostly Cloudy
8:00 PM 57.2 °F - 37.4 °F 48% 30.11 in 15.0 mi NNW 9.2 mph - N/A   Overcast
9:00 PM 55.4 °F - 39.2 °F 54% 30.13 in 15.0 mi NW 8.1 mph - N/A   Overcast
10:00 PM 53.6 °F - 39.2 °F 58% 30.14 in 9.0 mi NW 9.2 mph - N/A   Overcast
11:00 PM 51.8 °F - 39.2 °F 62% 30.15 in 9.0 mi NNW 8.1 mph - N/A   Overcast